Weather History for K1A6 - July, 2013

Change the Weather History Date:

Tuesday, July 30, 2013

  Actual Average (KLOZ) Record (KLOZ)
Temperature  
Mean Temperature 65 °F 76 °F  
Max Temperature 76 °F 86 °F 101 °F (1999)
Min Temperature 55 °F 66 °F 54 °F (1974)
Degree Days  
Heating Degree Days 0 0  
Month to date heating degree days 0  
Since 1 June heating degree days 9  
Since 1 July heating degree days 0  
Cooling Degree Days 0 11  
Month to date cooling degree days 330  
Year to date cooling degree days 687  
Since 1 June cooling degree days 573  
Growing Degree Days 15 (Base 50)    
Moisture  
Dew Point 60 °F    
Average Humidity 84    
Maximum Humidity 100    
Minimum Humidity 55    
Precipitation  
Precipitation 0.07 in 0.12 in 1.57 in (1976)
Month to date precipitation 3.92  
Year to date precipitation 28.85  
Sea Level Pressure  
Sea Level Pressure 30.24 in    
Wind  
Wind Speed 0 mph (WSW)    
Max Wind Speed 5 mph    
Max Gust Speed -    
Visibility 9 miles    
Events Fog , Rain    
T = Trace of Precipitation, MM = Missing Value Source: NWS Daily Summary

Daily Weather History Graph

Daily Weather History Graph

Search for Another Location

Airport or City:

Trip Planner

Search our weather history database for the weather conditions in past years. The results will help you decide how hot, cold, wet, or windy it might be!

Date:

Astronomy

Jul. 30, 2013 Rise Set
Actual Time 5:39 AM CDT 7:42 PM CDT
Civil Twilight 5:10 AM CDT 8:11 PM CDT
Nautical Twilight 4:35 AM CDT 8:46 PM CDT
Astronomical Twilight 3:58 AM CDT 9:23 PM CDT
Moon No Moon Rise 2:02 PM CDT (7/30)
Length of Visible Light 15h 00m
Length of Day
14h 03m
Last Quarter, 41% of the Moon is Illuminated
Jul 30
Last Quarter
Aug 6
New
Aug 14
First Quarter
Aug 20
Full
Aug 28
Last Quarter

Hourly Weather History & Observations

Time (CDT) Temp. Dew Point Humidity Pressure Visibility Wind Dir Wind Speed Gust Speed Precip Events Conditions
12:15 AM 59.0 °F 57.2 °F 94% 30.25 in 10.0 mi Calm Calm - N/A   Clear
12:35 AM 58.5 °F 57.2 °F 96% 30.25 in 10.0 mi Calm Calm - N/A   Clear
12:55 AM 58.1 °F 56.8 °F 96% 30.24 in 10.0 mi Calm Calm - N/A   Clear
1:15 AM 58.1 °F 56.8 °F 96% 30.24 in 10.0 mi Calm Calm - N/A   Clear
1:35 AM 57.4 °F 56.7 °F 97% 30.24 in 10.0 mi Calm Calm - N/A   Clear
1:55 AM 57.2 °F 56.1 °F 96% 30.24 in 10.0 mi Calm Calm - N/A   Clear
2:15 AM 56.7 °F 55.9 °F 97% 30.25 in 10.0 mi Calm Calm - N/A   Clear
2:35 AM 56.7 °F 55.9 °F 97% 30.25 in 10.0 mi Calm Calm - N/A   Clear
2:55 AM 56.3 °F 55.4 °F 97% 30.25 in 10.0 mi Calm Calm - N/A   Clear
3:15 AM 56.1 °F 55.6 °F 98% 30.25 in 10.0 mi Calm Calm - N/A   Scattered Clouds
3:35 AM 55.9 °F 55.4 °F 98% 30.25 in 10.0 mi Calm Calm - N/A   Overcast
3:55 AM 56.3 °F 56.1 °F 99% 30.25 in 1.8 mi Calm Calm - N/A   Overcast
4:15 AM 56.5 °F 56.5 °F 100% 30.25 in 0.5 mi Calm Calm - N/A Fog Fog
4:35 AM 56.3 °F 56.3 °F 100% 30.25 in 0.5 mi Calm Calm - N/A Fog Fog
4:55 AM 56.3 °F 56.3 °F 100% 30.25 in 0.5 mi Calm Calm - N/A Fog Fog
5:15 AM 56.3 °F 56.3 °F 100% 30.25 in 1.8 mi Calm Calm - N/A   Overcast
5:35 AM 56.1 °F 56.1 °F 100% 30.26 in 4.0 mi Calm Calm - N/A   Overcast
5:55 AM 56.3 °F 56.3 °F 100% 30.27 in 3.0 mi Calm Calm - N/A   Overcast
6:15 AM 56.3 °F 56.3 °F 100% 30.27 in 2.0 mi Calm Calm - N/A   Overcast
6:35 AM 56.3 °F 56.3 °F 100% 30.28 in 1.2 mi Calm Calm - N/A   Overcast
6:55 AM 56.5 °F 56.5 °F 100% 30.28 in 2.0 mi Calm Calm - N/A   Overcast
7:15 AM 56.7 °F 56.5 °F 99% 30.28 in 2.0 mi Calm Calm - N/A   Overcast
7:35 AM 56.8 °F 56.5 °F 99% 30.29 in 4.0 mi Calm Calm - N/A   Overcast
7:55 AM 57.4 °F 56.8 °F 98% 30.29 in 7.0 mi Calm Calm - N/A   Overcast
8:15 AM 58.3 °F 56.8 °F 95% 30.29 in 10.0 mi Calm Calm - N/A   Overcast
8:35 AM 59.4 °F 57.2 °F 93% 30.29 in 10.0 mi Calm Calm - N/A   Overcast
8:55 AM 60.6 °F 57.7 °F 90% 30.29 in 10.0 mi Calm Calm - N/A   Mostly Cloudy
9:15 AM 62.8 °F 59.0 °F 87% 30.28 in 10.0 mi Calm Calm - N/A   Mostly Cloudy
9:35 AM 62.8 °F 58.8 °F 87% 30.28 in 10.0 mi Calm Calm - N/A   Scattered Clouds
9:55 AM 64.2 °F 59.5 °F 85% 30.27 in 10.0 mi Calm Calm - N/A   Clear
10:15 AM 65.3 °F 59.9 °F 83% 30.26 in 10.0 mi Calm Calm - N/A   Clear
10:35 AM 67.5 °F 60.8 °F 79% 30.26 in 10.0 mi Calm Calm - N/A   Clear
10:55 AM 70.9 °F 61.9 °F 73% 30.25 in 10.0 mi Calm Calm - N/A   Clear
11:15 AM 71.6 °F 61.5 °F 70% 30.25 in 10.0 mi NNW 3.5 mph - N/A   Clear
11:55 AM 74.3 °F 59.9 °F 61% 30.24 in 10.0 mi Calm Calm - N/A   Clear
12:15 PM 75.2 °F 59.2 °F 57% 30.24 in 10.0 mi Calm Calm - N/A   Clear
12:35 PM 75.9 °F 58.8 °F 55% 30.24 in 10.0 mi SE 3.5 mph - N/A   Clear
1:15 PM 75.9 °F 59.4 °F 56% 30.24 in 10.0 mi Calm Calm - N/A   Clear
1:35 PM 75.4 °F 60.4 °F 60% 30.24 in 10.0 mi South 4.6 mph - N/A   Clear
1:55 PM 74.7 °F 61.5 °F 63% 30.23 in 10.0 mi SSE 3.5 mph - N/A   Clear
2:15 PM 74.7 °F 61.2 °F 63% 30.22 in 10.0 mi Calm Calm - N/A   Scattered Clouds
2:35 PM 74.3 °F 61.0 °F 63% 30.22 in 10.0 mi Calm Calm - N/A   Clear
2:55 PM 74.3 °F 59.2 °F 59% 30.22 in 10.0 mi Calm Calm - N/A   Scattered Clouds
3:15 PM 75.2 °F 58.1 °F 55% 30.21 in 10.0 mi Calm Calm - N/A   Clear
3:35 PM 75.7 °F 59.2 °F 56% 30.21 in 10.0 mi Calm Calm - N/A   Clear
3:55 PM 75.4 °F 58.1 °F 55% 30.21 in 10.0 mi Calm Calm - N/A   Clear
4:15 PM 75.2 °F 59.9 °F 59% 30.20 in 10.0 mi Calm Calm - N/A   Clear
4:35 PM 75.2 °F 61.2 °F 62% 30.20 in 10.0 mi Calm Calm - N/A   Clear
4:55 PM 74.5 °F 61.3 °F 63% 30.20 in 10.0 mi Calm Calm - N/A   Clear
5:15 PM 73.9 °F 62.4 °F 67% 30.20 in 10.0 mi Calm Calm - N/A   Mostly Cloudy
5:35 PM 73.4 °F 64.6 °F 74% 30.20 in 10.0 mi Calm Calm - N/A   Mostly Cloudy
5:55 PM 73.2 °F 65.3 °F 76% 30.20 in 10.0 mi Calm Calm - N/A   Mostly Cloudy
6:15 PM 72.0 °F 65.8 °F 81% 30.20 in 10.0 mi Calm Calm - N/A   Scattered Clouds
6:35 PM 71.6 °F 64.8 °F 79% 30.20 in 10.0 mi Calm Calm - N/A   Clear
6:55 PM 71.2 °F 65.3 °F 81% 30.20 in 10.0 mi Calm Calm - N/A   Scattered Clouds
7:15 PM 70.7 °F 65.3 °F 83% 30.20 in 10.0 mi Calm Calm - N/A   Scattered Clouds
7:35 PM 69.8 °F 65.3 °F 86% 30.19 in 10.0 mi Calm Calm - N/A   Clear
7:55 PM 69.3 °F 65.3 °F 87% 30.19 in 10.0 mi Calm Calm - N/A   Clear
8:15 PM 68.5 °F 65.3 °F 89% 30.19 in 10.0 mi Calm Calm - N/A   Mostly Cloudy
8:35 PM 68.4 °F 64.9 °F 89% 30.20 in 10.0 mi Calm Calm - N/A   Scattered Clouds
8:55 PM 67.5 °F 64.8 °F 91% 30.21 in 10.0 mi Calm Calm - N/A Rain Light Rain
9:15 PM 67.6 °F 64.9 °F 91% 30.21 in 10.0 mi Calm Calm - N/A Rain Rain
9:35 PM 67.3 °F 64.6 °F 91% 30.22 in 10.0 mi Calm Calm - N/A Rain Light Rain
9:55 PM 66.2 °F 63.9 °F 92% 30.22 in 10.0 mi Calm Calm - N/A Rain Rain
10:15 PM 65.8 °F 62.8 °F 90% 30.23 in 10.0 mi West 3.5 mph - 0.01 in Rain Light Rain
10:35 PM 64.9 °F 62.6 °F 92% 30.23 in 10.0 mi West 4.6 mph - 0.02 in Rain Light Rain
10:55 PM 64.4 °F 61.9 °F 92% 30.22 in 10.0 mi West 3.5 mph - 0.03 in Rain Light Rain
11:15 PM 64.0 °F 62.1 °F 93% 30.22 in 10.0 mi Calm Calm - 0.01 in Rain Light Rain
11:35 PM 63.5 °F 61.5 °F 93% 30.22 in 10.0 mi WSW 3.5 mph - 0.02 in Rain Light Rain
11:55 PM 63.1 °F 61.5 °F 94% 30.21 in 10.0 mi West 4.6 mph - 0.04 in Rain Light Rain